Flag for Germany Weather past 2 weeks in Viersen, North Rhine-Westphalia, Germany

Now
63 °F

Clear.


Feels Like: 63 °F
Forecast: 51 / 68 °F
Wind: 1 mph from North

Location: Monchengladbach Airport


UV Index: 0 (Low)

Visibility: 10 mi


Pressure: 30.07 "Hg

Humidity: 59%

Dew point: 48 °F

Location of ViersenLocation

Historic Weather in Viersen

°F

Viersen temperature yesterday

Maximum temperature yesterday: 64 °F (at 2:50 PM)
Minimum temperature yesterday: 46 °F (at 7:50 AM)
Average temperature yesterday: 60 °F

Past Weeks' High & Low Weather Summary

 TemperatureHumidityPressure
High72 °F (Apr 20, 4:20 PM)100% (Apr 9, 7:50 AM)30.45 "Hg (Apr 9, 7:50 AM)
Low32 °F (Apr 16, 7:50 AM)26% (Apr 17, 4:20 PM)29.62 "Hg (Apr 21, 2:50 PM)
Average56 °F63%30.05 "Hg
* Reported Apr 8 7:20 PM — Apr 23 7:50 PM, Viersen, Weather by CustomWeather, © 2014

Note: Actual official high and low records may vary slightly from our data, if they occured in-between our weather recording intervals... More about our weather records

Advertising

Historic Weather Conditions — Data for Previous 24 hours

 ConditionsComfort  
Time TempWeatherWind HumidityBarometerVisibility
7:50 PM
Apr 23
68 °FClear.3 mph43%30.07 "Hg10 mi
7:20 PM68 °FClear.3 mph43%30.07 "Hg10 mi
6:50 PM70 °FClear.6 mph40%30.07 "Hg10 mi
6:20 PM70 °FClear.6 mph40%30.07 "Hg10 mi
5:50 PM70 °FClear.5 mph43%30.07 "Hg10 mi
5:20 PM70 °FClear.3 mph40%30.07 "Hg10 mi
4:50 PM70 °FClear.2 mph43%30.07 "Hg10 mi
4:20 PM68 °FClear.5 mph43%30.07 "Hg10 mi
3:50 PM68 °FClear.2 mph43%30.07 "Hg10 mi
3:20 PM68 °FClear.2 mph46%30.07 "Hg10 mi
2:50 PM66 °FClear.5 mph49%30.07 "Hg10 mi
2:20 PM68 °FClear.5 mph43%30.09 "Hg10 mi
1:50 PM68 °FPassing clouds.3 mph46%30.09 "HgN/A
1:20 PM66 °FPassing clouds.5 mph56%30.09 "HgN/A
12:50 PM64 °FPassing clouds.5 mph56%30.09 "HgN/A
12:20 PM64 °FSunny.2 mph64%30.09 "Hg10 mi
11:50 AM63 °FSunny.2 mph68%30.09 "Hg10 mi
11:20 AM61 °FSunny.3 mph77%30.09 "Hg10 mi
10:50 AM59 °FSunny.3 mph82%30.09 "Hg10 mi
10:20 AM57 °FPassing clouds.5 mph94%30.09 "HgN/A
9:50 AM55 °FSunny.2 mph100%30.09 "Hg10 mi
9:20 AM55 °FSunny.1 mph100%30.09 "Hg10 mi
8:50 AM52 °FClear.2 mph100%30.09 "Hg4 mi
8:20 AM50 °FFog.2 mph100%30.07 "Hg3 mi
7:50 AM50 °FFog.5 mph100%30.07 "Hg3 mi
8:20 PM
Apr 22
57 °FClear.3 mph67%29.95 "Hg10 mi
Weather by CustomWeather, © 2014

See weather overview